Regional Weather Roundup
Issued by NWS

Home | Current Version | Previous Version | Graphics & Text | Print | Product List | Glossary On
Versions: 1 2 3 4 5 6 7 8 9 10 11 12 13 14 15 16 17 18 19 20 21 22 23 24 25 26 27 28
000
ASUS45 KBOU 192107
RWRCO

WEATHER ROUNDUP FOR COLORADO
NATIONAL WEATHER SERVICE DENVER/BOULDER CO
200 PM MST SUN FEB 19 2017

NOTE: "FAIR" INDICATES FEW OR NO CLOUDS BELOW 12000 FEET WITH NO
SIGNIFICANT WEATHER AND/OR OBSTRUCTIONS TO VISIBILITY.

COZ001>005-013-030-031-192200-
...NORTHWEST COLORADO...

CITY           SKY/WX    TMP DP  RH WIND       PRES   REMARKS
CRAIG          CLOUDY    44  30  57 N3        29.70S
HAYDEN         PTSUNNY   39  27  60 S3        29.71R
MEEKER         LGT RAIN  44  37  76 W8        29.71R
MOUNT WERNER   NOT AVBL
STEAMBOAT SPGS NOT AVBL
WALDEN         NOT AVBL
$$

COZ006>008-011-192200-
...WEST CENTRAL VALLEYS...

CITY           SKY/WX    TMP DP  RH WIND       PRES   REMARKS
GRAND JUNCTION LGT RAIN  43  43 100 NW14      29.77R
MONTROSE       CLOUDY    42  34  73 E12       29.79S
EAGLE          PTSUNNY   50  28  43 MISG      29.67F
RIFLE          CLOUDY    48  36  63 W22G32    29.69S
DELTA          CLOUDY    49  31  49 SW7       29.78R
NUCLA          NOT AVBL
$$

COZ017>023-064>068-192200-
...SOUTHWEST COLORADO...

CITY           SKY/WX    TMP DP  RH WIND       PRES   REMARKS
DURANGO        MIX PCPN  37  31  78 W3        29.84F
CORTEZ         CLOUDY    40  37  89 E12       29.83S
PAGOSA SPRINGS PTSUNNY   37  29  74 SW16G23   29.84R
TELLURIDE      CLOUDY    33  24  70 CALM      29.83F
WOLF CREEK PAS SNOW      19  19 100 S29G36    29.87S VSB 1/4 WCI   1
$$

COZ009-010-012-014-032>034-037-058>063-192200-
...CENTRAL COLORADO...

CITY           SKY/WX    TMP DP  RH WIND       PRES   REMARKS
ASPEN          PTSUNNY   43  27  53 N8        29.68R
BUENA VISTA    PTSUNNY  N/A N/A N/A S24G35    29.69
COPPER MTN     NOT AVBL
BERTHOUD PASS  CLOUDY    27  18  69 S7        29.81F WCI  19
COTTONWOOD PAS CLOUDY    39  27  60 SE18G29   29.72F
GUNNISON       MIX PCPN  36  31  82 SW10G16   29.75S
KREMMLING      CLOUDY    45  30  57 CALM      29.68F
LEADVILLE      LGT SNOW  32  22  66 S16G24    29.72F WCI  21
MONARCH PASS   CLOUDY    27  23  86 SW25      29.90F WCI  11
SALIDA         CLOUDY    44  33  66 SW12G18   29.80R
SUNLIGHT       NOT AVBL
WILKERSON PASS CLOUDY    34  19  55 SW12G20   29.80F WCI  25
$$

COZ069>075-192200-
...SAN LUIS VALLEY/SANGRE DE CRISTO MOUNTAINS...

CITY           SKY/WX    TMP DP  RH WIND       PRES   REMARKS
ALAMOSA        FAIR      46  29  51 S20G25    29.75S
LA VETA PASS   PTSUNNY   34  27  75 NE22G35   29.80S WCI  22
SAGUACHE       CLOUDY    43  32  65 S6        29.74F
$$

COZ035-036-038>040-192200-
...NORTHERN COLORADO FRONT RANGE...

CITY           SKY/WX    TMP DP  RH WIND       PRES   REMARKS
DENVER INTL AP PTSUNNY   63  22  20 S25       29.55F
DMNS CITY PARK   N/A     61  23  23 NE12G18   29.55F
AURORA         PTSUNNY   61  24  23 S24G31    29.56F
FRONT RANGE AP PTSUNNY   64  25  22 SE20G28   29.58
ERIE MUNI ARPT FAIR      60  23  24 NE6       29.56F
BOULDER MUN AP FAIR      59  27  29 NE5       29.56F
CENTENNIAL     PTSUNNY   61  22  22 S25G31    29.57F
BROOMFIELD     CLOUDY    59  25  27 N5        29.58F
FORT COLLINS   FAIR      60  28  29 N7        29.58F
LONGMONT       FAIR      63  26  24 NE7       29.58F
$$

COZ041-046-047-076>085-087-088-192200-
...PIKES PEAK/PALMER DIVIDE AND SOUTHERN FOOTHILLS...

CITY           SKY/WX    TMP DP  RH WIND       PRES   REMARKS
COLO. SPRINGS  CLOUDY    57  28  33 SE17      29.64F
A. F. ACADEMY  FAIR      54  25  32 S18       29.63F
SCHRIEVER AFB  FAIR      56  27  32 SE24G37   29.65F
ELLICOTT       FAIR     N/A N/A N/A S24G31    29.63F
FALCON         NOT AVBL
FORT CARSON    FAIR      60  26  27 SE17      29.61F
LIMON          PTSUNNY   57  30  35 S22       29.64F
MONUMENT HILL  FAIR      50  27  40 S20G29    29.66F
TRINIDAD       FAIR      57  23  26 S30G39    29.68F
$$

COZ042>045-048>051-090-091-192200-
...NORTHEAST COLORADO...

CITY           SKY/WX    TMP DP  RH WIND       PRES   REMARKS
GREELEY ARPT   FAIR      58  27  30 E9        29.57F
AKRON          FAIR      66  23  19 S17G28    29.59F
BURLINGTON     FAIR      63  41  44 S26       29.68F
WRAY           NOT AVBL
STERLING       FAIR      64  32  29 NE6       29.56F
HOLYOKE        FAIR      63  36  36 SE16      29.62F
FORT MORGAN    FAIR      65  24  20 S16       29.56F
$$

COZ086-089-092>099-192200-
...SOUTHEAST COLORADO...

CITY           SKY/WX    TMP DP  RH WIND       PRES   REMARKS
PUEBLO         FAIR      66  27  23 S24G33    29.57F
LA JUNTA       FAIR      68  24  19 S24       29.61F
LAMAR          PTSUNNY   68  31  25 S18G26    29.63F
SPRINGFIELD      N/A     58  38  47 S21       29.74R
$$




USA.gov is the U.S. government's official web portal to all federal, state and local government web resources and services.